Hourly Weather Basarabeasca

Today, 30 September, Wednesday

Time Temperature Precipitation Wind Pressure Humidity
00:00 +15°C° 0 mm 2 mps 748 mmHg 88%
01:00 +15°C° 0 mm 2 mps 748 mmHg 87%
02:00 +15°C° 0 mm 2 mps 748 mmHg 87%
03:00 +14°C° 0 mm 3 mps 747 mmHg 86%
04:00 +14°C° 0 mm 3 mps 747 mmHg 86%
05:00 +13°C° 0 mm 3 mps 747 mmHg 86%
06:00 +14°C° 0 mm 3 mps 747 mmHg 80%
07:00 +14°C° 0 mm 3 mps 747 mmHg 73%
08:00 +15°C° 0 mm 4 mps 747 mmHg 67%
09:00 +15°C° 0 mm 4 mps 747 mmHg 64%
10:00 +17°C° 0 mm 4 mps 747 mmHg 61%
11:00 +18°C° 0 mm 4 mps 747 mmHg 57%
12:00 +18°C° 0 mm 4 mps 747 mmHg 57%
13:00 +18°C° 0 mm 4 mps 746 mmHg 57%
14:00 +18°C° 0 mm 4 mps 746 mmHg 56%
15:00 +18°C° 0 mm 4 mps 746 mmHg 55%
16:00 +18°C° 0 mm 3 mps 746 mmHg 54%
17:00 +18°C° 0 mm 3 mps 746 mmHg 52%
18:00 +17°C° 0 mm 3 mps 746 mmHg 56%
19:00 +16°C° 0 mm 3 mps 746 mmHg 60%
20:00 +14°C° 0 mm 3 mps 746 mmHg 64%
21:00 +14°C° 0 mm 3 mps 746 mmHg 65%
22:00 +14°C° 0 mm 2 mps 746 mmHg 66%
23:00 +14°C° 0 mm 2 mps 746 mmHg 68%

Tomorrow, 1 October, Thursday

Time Temperature Precipitation Wind Pressure Humidity
00:00 +14°C° 0 mm 2 mps 746 mmHg 68%
01:00 +14°C° 0 mm 2 mps 746 mmHg 69%
02:00 +14°C° 0 mm 2 mps 746 mmHg 69%
03:00 +13°C° 0 mm 2 mps 746 mmHg 69%
04:00 +13°C° 0 mm 2 mps 746 mmHg 69%
05:00 +12°C° 0 mm 3 mps 746 mmHg 69%
06:00 +13°C° 0 mm 3 mps 746 mmHg 69%
07:00 +14°C° 0 mm 3 mps 746 mmHg 69%
08:00 +14°C° 0 mm 4 mps 746 mmHg 69%
09:00 +17°C° 0 mm 3 mps 747 mmHg 63%
10:00 +18°C° 0 mm 3 mps 747 mmHg 57%
11:00 +20°C° 0 mm 3 mps 747 mmHg 51%
12:00 +20°C° 0 mm 3 mps 747 mmHg 48%
13:00 +21°C° 0 mm 4 mps 747 mmHg 45%
14:00 +22°C° 0 mm 4 mps 747 mmHg 42%
15:00 +21°C° 0 mm 4 mps 747 mmHg 44%
16:00 +21°C° 0 mm 4 mps 747 mmHg 46%
17:00 +20°C° 0 mm 4 mps 747 mmHg 49%
18:00 +19°C° 0 mm 4 mps 747 mmHg 57%
19:00 +17°C° 0 mm 4 mps 747 mmHg 66%
20:00 +15°C° 0 mm 4 mps 748 mmHg 75%
21:00 +14°C° 0 mm 4 mps 748 mmHg 78%
22:00 +14°C° 0 mm 3 mps 748 mmHg 82%
23:00 +13°C° 0 mm 3 mps 748 mmHg 86%

Day after tomorrow, 2 October, Friday

Time Temperature Precipitation Wind Pressure Humidity
00:00 +13°C° 0 mm 3 mps 748 mmHg 85%
01:00 +13°C° 0 mm 3 mps 748 mmHg 85%
02:00 +13°C° 0 mm 3 mps 748 mmHg 85%
03:00 +13°C° 0 mm 3 mps 748 mmHg 84%
04:00 +13°C° 0 mm 3 mps 749 mmHg 84%
05:00 +12°C° 0 mm 3 mps 749 mmHg 84%
06:00 +13°C° 0 mm 3 mps 749 mmHg 78%
07:00 +14°C° 0 mm 3 mps 749 mmHg 73%
08:00 +15°C° 0 mm 4 mps 749 mmHg 68%
09:00 +18°C° 0 mm 4 mps 750 mmHg 62%
10:00 +19°C° 0 mm 4 mps 750 mmHg 56%
11:00 +21°C° 0 mm 4 mps 750 mmHg 51%
12:00 +22°C° 0 mm 4 mps 750 mmHg 47%
13:00 +23°C° 0 mm 4 mps 750 mmHg 43%
14:00 +25°C° 0 mm 4 mps 750 mmHg 39%
15:00 +23°C° 0 mm 4 mps 750 mmHg 40%
16:00 +24°C° 0 mm 3 mps 751 mmHg 42%
17:00 +24°C° 0 mm 2 mps 751 mmHg 43%
18:00 +23°C° 0 mm 2 mps 751 mmHg 47%
19:00 +20°C° 0 mm 2 mps 752 mmHg 50%
20:00 +19°C° 0 mm 2 mps 752 mmHg 54%
21:00 +19°C° 0 mm 2 mps 752 mmHg 56%
22:00 +18°C° 0 mm 2 mps 753 mmHg 57%
23:00 +18°C° 0 mm 2 mps 753 mmHg 59%

3 October, Saturday

Time Temperature Precipitation Wind Pressure Humidity
00:00 +17°C° 0 mm 2 mps 753 mmHg 60%
01:00 +17°C° 0 mm 2 mps 753 mmHg 60%
02:00 +18°C° 0 mm 1 mps 753 mmHg 61%
03:00 +18°C° 0 mm 1 mps 753 mmHg 62%
04:00 +18°C° 0 mm 1 mps 753 mmHg 62%
05:00 +16°C° 0 mm 1 mps 754 mmHg 63%
06:00 +17°C° 0 mm 2 mps 754 mmHg 60%
07:00 +18°C° 0 mm 2 mps 754 mmHg 57%
08:00 +19°C° 0 mm 2 mps 754 mmHg 54%
09:00 +21°C° 0 mm 3 mps 754 mmHg 48%
10:00 +25°C° 0 mm 4 mps 754 mmHg 42%
11:00 +27°C° 0 mm 5 mps 754 mmHg 37%
12:00 +27°C° 0 mm 5 mps 754 mmHg 34%
13:00 +28°C° 0 mm 5 mps 754 mmHg 32%
14:00 +29°C° 0 mm 5 mps 754 mmHg 30%
15:00 +28°C° 0 mm 6 mps 754 mmHg 33%
16:00 +27°C° 0 mm 6 mps 754 mmHg 35%
17:00 +26°C° 0 mm 6 mps 753 mmHg 37%
18:00 +24°C° 0 mm 6 mps 754 mmHg 45%
19:00 +22°C° 0 mm 6 mps 754 mmHg 52%
20:00 +21°C° 0 mm 7 mps 754 mmHg 59%
21:00 +20°C° 0 mm 6 mps 755 mmHg 64%
22:00 +20°C° 0 mm 6 mps 755 mmHg 68%
23:00 +19°C° 0 mm 6 mps 755 mmHg 72%

4 October, Sunday

Time Temperature Precipitation Wind Pressure Humidity
00:00 +19°C° 0 mm 6 mps 755 mmHg 74%
01:00 +17°C° 0 mm 6 mps 755 mmHg 77%
02:00 +17°C° 0 mm 6 mps 755 mmHg 79%
03:00 +17°C° 0 mm 6 mps 755 mmHg 82%
04:00 +17°C° 0 mm 6 mps 755 mmHg 84%
05:00 +17°C° 0 mm 6 mps 755 mmHg 87%
06:00 +17°C° 0 mm 6 mps 755 mmHg 83%
07:00 +18°C° 0 mm 7 mps 755 mmHg 79%
08:00 +20°C° 0 mm 7 mps 755 mmHg 75%
09:00 +22°C° 0 mm 7 mps 755 mmHg 66%
10:00 +24°C° 0 mm 8 mps 755 mmHg 56%
11:00 +27°C° 0 mm 8 mps 755 mmHg 46%
12:00 +27°C° 0 mm 8 mps 755 mmHg 43%
13:00 +28°C° 0 mm 8 mps 755 mmHg 41%
14:00 +29°C° 0 mm 8 mps 755 mmHg 39%
15:00 +28°C° 0 mm 8 mps 755 mmHg 43%
16:00 +26°C° 0 mm 8 mps 755 mmHg 47%
17:00 +24°C° 0 mm 7 mps 755 mmHg 51%
18:00 +23°C° 0 mm 8 mps 755 mmHg 60%
19:00 +22°C° 0 mm 8 mps 755 mmHg 69%
20:00 +20°C° 0 mm 8 mps 755 mmHg 78%
21:00 +20°C° 0 mm 7 mps 755 mmHg 81%
22:00 +19°C° 0 mm 6 mps 756 mmHg 84%
23:00 +19°C° 0 mm 5 mps 756 mmHg 86%

5 October, Monday

Time Temperature Precipitation Wind Pressure Humidity
00:00 +19°C° 0 mm 6 mps 755 mmHg 87%
01:00 +19°C° 0 mm 6 mps 755 mmHg 88%
02:00 +19°C° 0 mm 6 mps 755 mmHg 88%
03:00 +19°C° 0 mm 6 mps 755 mmHg 89%
04:00 +17°C° 0 mm 6 mps 755 mmHg 90%
05:00 +17°C° 0 mm 6 mps 755 mmHg 91%
06:00 +18°C° 0 mm 7 mps 755 mmHg 87%
07:00 +20°C° 0 mm 7 mps 755 mmHg 83%
08:00 +21°C° 0 mm 8 mps 755 mmHg 79%
09:00 +23°C° 0 mm 8 mps 755 mmHg 69%
10:00 +24°C° 0 mm 8 mps 755 mmHg 59%
11:00 +27°C° 0 mm 8 mps 755 mmHg 48%
12:00 +28°C° 0 mm 8 mps 755 mmHg 46%
13:00 +28°C° 0 mm 8 mps 755 mmHg 44%
14:00 +29°C° 0 mm 9 mps 754 mmHg 42%
15:00 +28°C° 0 mm 8 mps 754 mmHg 47%
16:00 +26°C° 0 mm 8 mps 754 mmHg 53%
17:00 +24°C° 0 mm 8 mps 754 mmHg 58%
18:00 +23°C° 0 mm 7 mps 754 mmHg 66%
19:00 +22°C° 0 mm 7 mps 754 mmHg 74%
20:00 +20°C° 0 mm 7 mps 754 mmHg 81%
21:00 +20°C° 0 mm 7 mps 754 mmHg 82%
22:00 +20°C° 0 mm 7 mps 754 mmHg 82%
23:00 +20°C° 0 mm 7 mps 754 mmHg 82%
Show more

We Need Your Consent

Meteoprog and our Service Providers may store and access personal data such as cookies, device identifiers or other similar technologies on your device and process such data to personalise content and ads, as well as provide social media features and to analyse the traffic.

  • Store and/or access information on your device

    Cookies, device identifiers or other information can be stored or accessed on your device for the purposes indicated above.

  • Personalised ads and content, ad and content measurement, audience insights, and products development

    Ads and content can be personalised based on a profile. More data can be added to better personalise ads and content. Ad and content performance can be measured. Insights about the audience who saw the ads and content can be derived. Such data can be used to develop or improve user’s experience, systems and software.

By clicking ‘I Agree’ you will allow the use of indicated cookies, device identifiers, web beacons or other similar technologies. Your settings can be changed in the browser on your device.

For certain purposes, legitimate interests may be relied on, rather than consent. You can read more about this in our Privacy and Cookie Policy.